GFSSE_925_thetae_021.txt.gz
Theta_e
332 323 321 320 317 315 314 313 312 311 312 313 312 311 311 311 311 311 311 312 312 312 315 317 317 318 321 327 328 327 323 319 320 320 332 342 343 343 342 342 344 349 339
331 323 321 320 316 315 315 314 313 312 313 314 313 312 312 312 313 314 314 314 316 318 320 324 328 328 328 329 329 330 330 329 329 326 316 329 342 343 342 341 344 346 342
332 323 320 319 316 315 315 315 314 313 315 315 314 314 314 315 315 317 318 319 323 328 329 330 330 332 333 332 332 331 330 331 329 329 324 312 328 341 343 341 341 344 345
332 323 320 318 316 315 316 316 315 314 316 316 316 316 317 318 319 318 318 321 329 331 331 332 333 334 336 336 334 333 332 332 332 331 326 312 315 323 329 341 341 341 345
334 325 322 317 315 315 316 316 316 315 316 317 317 318 319 321 322 323 324 326 331 333 335 335 335 335 335 338 337 336 333 333 333 332 325 326 325 328 333 340 341 341 342
338 331 322 316 315 315 316 316 316 316 316 318 318 319 320 322 323 324 327 331 332 334 335 337 337 337 336 336 336 335 336 335 334 331 328 327 326 332 339 339 340 341 341
338 337 329 319 316 316 317 316 317 317 317 318 319 319 320 321 322 324 327 330 334 336 338 338 339 338 336 335 337 334 330 333 336 331 332 333 333 332 333 330 331 338 342
336 338 336 324 318 317 317 317 317 318 318 318 319 320 320 321 321 322 325 329 334 339 338 338 337 336 335 334 334 334 333 331 333 335 335 335 335 333 331 330 329 327 339
336 337 340 332 322 319 318 318 318 318 318 318 319 320 321 321 321 322 322 329 334 332 332 328 327 328 331 332 332 334 333 333 328 326 334 335 335 334 331 330 328 327 334
338 337 339 340 334 321 318 319 319 319 320 320 320 321 323 323 322 322 327 331 331 329 326 329 328 326 325 330 332 333 334 334 332 326 324 333 334 333 331 329 329 321 334
334 339 340 341 338 333 322 319 320 320 321 321 321 322 325 325 323 323 334 336 336 333 332 330 328 326 320 323 331 333 333 333 331 328 323 325 333 333 331 329 328 319 332
330 338 338 340 338 337 333 324 320 321 322 324 324 323 325 325 324 330 336 335 335 333 332 330 328 323 323 325 323 330 332 328 330 328 328 330 332 334 331 332 330 321 330
330 331 341 338 338 338 339 337 329 323 323 327 327 325 326 326 332 336 335 334 333 333 331 331 330 330 328 329 328 329 331 329 327 327 328 330 331 332 334 331 326 320 329
330 328 337 339 340 342 341 339 334 330 328 329 329 327 331 335 338 338 336 335 336 335 333 332 331 331 330 332 332 331 331 331 331 331 328 330 332 332 332 330 325 322 322
330 329 331 338 344 343 343 341 340 339 338 335 330 331 334 337 339 337 333 334 335 334 333 332 332 331 331 332 332 330 330 330 332 331 330 330 331 330 330 329 326 324 322
330 328 331 337 342 344 344 342 341 341 340 339 340 338 338 338 338 335 335 337 336 334 333 332 332 331 330 330 330 330 330 328 329 330 330 331 330 329 329 328 328 331 331
329 328 330 337 340 344 344 343 342 342 342 343 341 341 340 340 338 335 336 336 335 334 333 331 331 331 331 330 328 328 329 328 328 329 330 330 330 329 329 327 325 326 333
329 328 330 337 339 340 345 344 343 344 345 344 342 342 341 339 335 335 336 335 335 334 335 333 332 331 330 330 330 330 328 328 328 328 329 330 330 329 329 328 320 317 330
328 328 332 337 339 341 342 344 346 343 343 343 339 336 336 334 335 336 335 335 334 334 335 334 332 331 330 330 330 329 327 327 327 329 328 329 330 329 329 330 325 314 323
328 329 332 337 342 345 346 345 344 345 343 339 338 336 334 333 334 335 336 335 334 335 334 332 331 330 330 328 328 328 328 327 328 328 328 329 329 329 328 329 329 328 323
333 334 337 340 348 349 349 347 346 345 342 340 336 335 335 335 336 337 334 333 334 333 333 332 330 330 329 328 328 328 327 327 326 328 329 328 328 328 326 326 330 331 324
336 340 344 346 351 350 349 348 345 344 338 337 334 333 334 336 335 334 333 332 332 332 331 330 329 329 329 328 327 326 324 326 327 328 328 329 328 328 327 327 331 330 328
339 343 345 351 351 350 348 347 346 341 338 336 334 333 333 334 335 334 333 332 331 330 330 330 329 329 328 327 327 325 326 326 324 328 328 328 327 327 327 329 330 330 331
341 343 345 352 350 350 347 346 342 338 337 336 334 335 335 335 334 331 331 330 330 331 331 330 329 328 328 328 327 326 326 327 324 324 327 327 329 328 327 329 330 330 332
341 341 343 350 348 347 345 342 340 336 336 334 335 334 336 335 333 332 331 331 330 329 329 329 329 329 328 327 328 327 326 326 326 323 324 326 328 328 328 329 330 329 333
342 343 347 347 345 342 341 336 334 334 335 336 334 335 334 334 333 333 332 330 329 329 330 330 329 329 329 328 328 328 328 324 324 323 324 324 325 328 327 329 328 329 331

GFSSE_925_thetae_024.txt.gz
Theta_e
337 324 320 317 315 315 315 314 312 311 313 312 311 311 310 310 310 310 310 309 310 312 313 314 316 316 317 321 323 320 317 315 316 320 327 340 343 343 342 342 342 338 342
336 323 320 318 315 315 316 315 313 312 314 313 312 312 312 312 312 312 311 311 312 314 317 320 323 324 324 324 327 329 328 328 326 318 315 323 339 342 342 342 342 344 340
336 323 321 319 315 315 316 316 314 313 314 314 313 313 314 314 314 314 314 313 315 319 321 323 327 330 330 331 331 329 329 330 329 329 324 314 321 337 341 341 342 343 340
327 323 321 319 316 316 316 316 315 314 315 314 314 315 315 316 316 316 316 318 321 327 329 330 331 332 334 335 334 333 332 331 331 331 328 316 313 324 323 339 340 341 344
327 323 321 319 316 316 316 316 316 314 316 316 316 316 317 317 318 319 319 321 327 332 332 333 334 334 334 337 337 335 333 332 332 331 325 321 325 326 334 333 340 340 342
328 324 321 319 316 316 316 316 316 315 316 316 316 317 318 318 319 320 321 323 326 332 335 336 337 337 336 335 337 337 336 335 335 331 325 326 329 328 340 340 340 340 339
329 324 321 319 316 316 316 316 317 316 316 317 317 317 318 318 320 320 321 324 327 331 335 337 338 338 337 336 337 337 334 329 333 334 329 331 332 331 338 337 336 337 339
334 328 324 320 318 316 317 317 317 317 316 317 318 318 318 319 320 321 321 324 329 334 336 339 338 335 333 333 333 334 335 334 331 332 333 333 334 334 333 330 329 330 337
336 335 329 322 317 317 316 317 317 318 317 317 318 318 319 320 321 322 321 323 330 334 335 334 331 327 328 328 329 333 333 334 333 327 327 333 334 335 333 330 329 328 328
337 337 335 330 318 317 316 317 317 318 318 317 318 319 320 320 322 322 322 324 330 331 329 328 328 328 328 327 329 333 333 336 335 330 325 326 334 334 333 332 329 328 326
339 338 338 335 324 318 317 317 317 318 318 318 318 319 320 322 323 323 322 330 333 334 332 331 330 329 326 325 328 332 333 334 333 332 328 324 327 334 333 331 329 328 324
339 340 339 339 334 323 322 321 319 318 319 319 319 319 321 323 324 324 323 333 335 336 334 332 330 328 324 323 323 329 331 331 331 330 328 325 327 332 333 331 330 330 325
329 333 338 338 339 335 328 325 325 321 320 322 322 322 322 324 326 325 327 335 334 335 335 332 330 329 328 327 328 323 328 329 329 327 326 324 329 331 334 332 331 330 327
329 330 331 337 340 340 338 329 328 328 324 328 327 325 323 326 326 326 334 335 334 333 334 333 331 330 331 329 330 330 330 331 331 330 330 325 328 329 333 332 332 326 324
329 327 330 337 339 340 340 337 335 331 328 331 330 327 325 327 326 332 337 336 335 335 334 333 332 331 331 330 331 332 330 330 330 331 332 331 329 331 331 331 331 328 323
329 329 330 336 338 341 341 339 338 337 333 332 332 328 327 327 328 335 338 336 333 334 334 332 332 332 330 330 331 331 331 330 328 329 330 330 329 330 330 330 330 332 333
329 328 329 333 338 340 341 340 340 340 338 335 332 329 327 328 330 336 337 334 335 335 333 333 331 331 331 330 330 329 328 329 330 328 329 329 330 330 329 328 329 330 334
328 329 328 332 337 341 343 341 341 341 340 339 338 336 338 336 336 338 336 336 336 335 334 333 333 331 331 331 331 330 328 328 328 328 329 329 331 330 329 328 328 326 332
329 328 328 332 334 338 344 343 342 342 342 341 339 340 340 339 339 338 335 336 335 335 333 334 334 332 331 330 329 329 329 329 328 328 328 329 329 330 329 327 328 326 322
329 329 329 330 335 340 344 343 342 343 343 342 342 342 341 341 340 337 335 334 334 334 334 333 333 332 331 330 329 329 328 328 327 328 328 328 328 329 329 328 329 329 320
329 328 330 335 340 341 343 346 343 344 344 344 342 340 339 339 334 335 335 335 335 334 334 332 331 330 330 329 328 328 327 327 328 328 328 328 329 329 328 328 328 329 328
328 329 332 335 341 344 344 344 344 341 340 338 336 336 335 334 335 335 336 334 333 333 332 331 330 329 329 328 327 326 327 326 327 326 326 328 328 328 327 328 326 327 329
331 335 336 339 345 347 346 344 344 341 337 336 335 335 335 334 336 335 334 333 332 331 330 329 329 329 328 327 327 325 326 325 324 326 327 327 328 327 328 328 327 328 329
335 342 346 347 348 348 347 345 342 337 335 335 334 333 336 336 335 334 333 331 330 329 330 330 329 329 328 326 326 326 325 325 324 323 326 328 328 327 327 327 328 329 330
341 347 349 349 349 347 347 345 343 338 337 337 335 334 335 334 334 333 331 330 330 330 329 329 329 329 328 327 326 326 326 325 326 322 322 324 327 328 329 328 330 329 327
342 349 349 349 348 347 346 344 342 338 335 335 335 335 335 334 333 332 332 331 328 328 329 329 329 329 328 328 327 327 326 324 324 323 322 321 322 327 327 327 327 329 328

GFSSE_925_thetae_027.txt.gz
Theta_e
334 325 321 320 317 313 312 312 311 313 312 311 311 310 310 309 309 309 309 310 310 310 310 311 310 311 312 313 314 315 318 317 317 319 325 340 342 343 342 341 340 339 343
330 331 319 318 315 314 313 312 312 313 313 312 311 311 311 311 310 310 310 310 310 310 311 313 315 316 317 319 320 322 321 324 323 319 318 323 338 342 342 341 341 338 340
332 329 320 316 315 314 314 313 313 314 313 312 312 312 312 312 312 312 310 310 310 313 316 319 320 323 326 326 327 326 325 325 325 326 328 322 320 336 340 342 341 342 339
334 323 320 316 315 315 315 315 313 314 314 313 313 313 314 314 314 314 313 313 313 317 323 327 327 328 331 333 333 331 330 328 328 331 328 320 312 323 326 338 340 340 341
336 324 320 317 315 315 316 316 314 314 314 314 314 315 315 315 315 315 316 317 318 327 329 331 332 333 334 335 337 336 332 330 329 332 329 319 317 323 332 330 339 339 342
334 325 321 318 315 316 316 316 315 314 315 315 315 315 316 316 317 317 318 320 324 332 333 335 335 335 336 336 335 337 337 335 334 331 329 323 326 328 338 332 337 339 339
328 325 322 319 316 316 316 316 316 314 315 315 315 316 316 317 318 319 320 321 324 333 335 336 337 337 338 338 337 337 336 334 335 332 332 329 330 332 340 337 339 339 339
330 326 323 320 318 316 316 316 316 315 315 316 316 316 317 318 319 320 321 322 326 331 334 337 338 338 336 334 335 335 337 337 334 329 332 331 331 333 337 337 333 332 336
333 328 325 322 319 316 316 316 316 316 315 316 317 317 317 318 319 319 320 322 326 331 334 335 337 335 334 333 330 331 335 336 336 333 327 328 333 334 335 333 329 328 329
336 331 328 325 321 316 315 316 316 316 316 316 317 318 318 319 320 320 321 321 326 331 331 329 329 330 332 333 330 329 333 335 335 335 331 325 328 334 333 334 329 329 327
339 335 330 327 324 320 317 316 315 316 316 316 317 318 319 321 322 322 322 321 327 331 332 331 330 330 330 330 331 330 332 332 333 334 332 327 326 329 336 332 331 330 328
340 339 336 332 329 324 322 319 317 316 317 317 317 318 321 323 323 323 322 322 330 333 334 333 332 330 330 328 325 327 330 329 330 331 328 325 328 325 332 332 331 330 329
332 337 338 337 335 331 327 325 321 319 318 319 319 320 322 323 325 325 324 323 331 334 335 335 333 331 330 328 327 327 321 325 328 328 326 325 326 324 333 332 331 330 330
327 330 334 337 338 337 332 329 324 325 320 322 323 323 323 325 326 326 325 324 333 333 333 335 334 331 330 330 329 329 329 329 330 330 330 329 328 324 331 334 331 331 330
325 326 330 334 338 339 337 332 329 325 325 324 325 326 325 325 325 325 325 326 334 334 333 334 334 332 330 330 330 330 331 331 330 331 331 331 330 326 330 334 333 331 329
326 327 326 331 334 340 340 337 333 329 330 329 329 328 327 326 324 325 325 331 335 334 334 334 333 332 331 331 330 330 331 331 330 330 328 329 330 329 330 331 331 331 330
327 327 326 326 331 339 339 339 338 336 334 332 330 331 330 327 325 325 326 334 336 334 333 334 333 332 331 331 330 329 331 330 329 330 328 329 330 329 330 330 329 329 331
326 326 327 326 329 337 340 339 339 339 338 336 334 333 331 329 327 328 328 337 336 334 335 334 333 332 331 331 330 330 330 329 328 329 328 328 329 329 329 329 328 328 328
326 326 326 326 329 334 338 340 340 339 339 338 337 335 332 330 328 329 331 337 335 336 335 333 333 332 332 331 331 330 330 329 328 328 328 327 329 330 330 329 328 328 327
325 325 326 326 331 336 340 341 340 340 340 339 339 336 336 334 334 333 336 336 335 334 334 333 333 333 332 331 330 329 329 328 328 328 327 327 328 329 329 329 327 328 328
324 325 327 326 329 338 342 341 340 340 340 340 340 340 338 339 337 337 337 335 335 334 333 333 333 331 331 330 329 328 328 327 327 327 327 327 328 327 328 328 328 328 329
325 326 327 327 329 336 340 341 341 340 339 341 341 340 341 340 340 339 337 334 334 334 334 333 331 330 329 328 326 325 325 326 327 327 327 327 328 328 328 328 328 327 328
324 326 327 328 332 338 341 343 341 339 339 339 340 341 339 339 336 338 333 335 334 333 332 331 329 328 328 327 327 324 323 323 324 326 326 326 327 328 328 327 327 327 326
324 325 331 334 338 343 342 343 340 337 335 334 337 337 334 335 335 334 335 334 332 331 330 329 329 328 327 325 326 326 324 323 324 323 325 326 327 327 327 327 328 327 327
323 330 340 342 344 345 344 343 339 335 335 335 335 335 334 334 335 335 334 331 330 329 329 329 328 328 328 327 325 325 325 325 325 322 324 324 326 327 328 327 327 327 328
338 344 345 345 345 345 344 342 340 337 334 333 333 335 335 335 334 332 331 331 330 327 327 328 328 328 328 328 327 326 325 323 322 323 322 319 322 326 327 328 328 329 329

GFSSE_925_thetae_030.txt.gz
Theta_e
338 326 320 319 317 315 314 312 312 313 313 312 312 312 312 313 314 315 316 317 317 317 317 315 313 312 312 312 314 312 312 312 315 319 325 340 342 343 342 342 341 341 342
336 326 319 319 317 315 313 311 312 313 312 311 311 311 310 310 310 309 309 309 309 310 313 312 312 313 314 315 317 318 319 317 314 314 316 321 340 341 342 341 342 339 340
334 325 319 319 317 315 313 311 312 312 312 311 311 311 310 310 310 310 310 309 310 312 318 322 322 321 321 323 324 323 323 323 324 325 327 315 323 337 340 342 341 338 337
331 325 319 318 316 315 313 312 312 313 312 312 312 312 312 312 312 311 311 310 311 314 322 323 324 326 325 326 327 327 326 326 327 331 327 318 313 323 335 339 344 341 340
330 331 320 317 316 315 314 313 313 313 313 313 313 313 313 313 313 313 313 314 314 320 326 327 328 329 332 334 333 333 332 330 331 333 328 322 315 318 325 328 341 341 342
334 331 321 317 316 315 314 314 313 314 313 313 314 314 314 315 315 315 316 317 319 323 329 332 332 333 334 336 335 335 337 336 334 333 331 326 321 324 331 332 335 339 339
335 328 322 318 316 315 315 315 314 314 314 314 314 315 315 316 316 317 318 320 325 331 334 335 334 335 335 337 338 337 335 335 336 331 331 330 326 330 333 331 330 337 338
334 332 324 320 317 315 315 315 314 314 314 314 315 315 316 316 317 318 319 321 327 333 333 334 333 334 335 334 333 334 335 337 337 333 327 331 329 332 332 337 336 336 337
335 333 329 323 319 315 315 314 315 314 314 315 315 316 316 317 318 319 319 320 325 330 331 333 335 336 334 331 331 332 332 335 337 335 332 327 329 332 333 336 333 330 329
334 332 329 326 323 320 317 314 314 315 314 315 316 316 317 317 318 319 320 321 323 329 331 332 331 331 331 331 329 330 333 333 334 336 333 331 326 331 333 335 332 329 328
338 336 332 328 327 325 321 319 315 315 315 315 316 316 317 318 319 320 321 321 323 329 331 331 330 330 330 329 327 327 331 331 331 332 333 332 330 326 332 335 332 330 329
339 338 336 333 329 329 329 325 321 317 316 315 316 318 318 319 319 320 321 322 322 329 332 332 331 330 330 328 327 326 328 328 329 330 330 329 328 327 328 332 333 331 330
336 338 338 337 333 330 330 329 326 323 319 319 318 319 320 320 320 322 322 323 322 328 333 335 334 332 330 329 328 327 326 321 324 326 326 326 325 325 330 330 330 331 330
329 330 334 337 337 334 332 331 329 325 322 321 322 322 322 323 323 324 323 322 322 326 333 334 335 334 332 330 329 329 328 328 328 329 330 330 329 328 327 333 331 331 330
324 326 327 328 332 336 336 334 332 329 326 324 325 326 325 326 322 322 324 323 323 325 333 334 335 335 332 330 330 330 329 329 330 330 330 330 330 329 323 333 335 331 330
323 325 326 326 327 334 337 337 335 333 331 329 327 326 329 326 322 321 323 324 324 325 333 333 334 333 332 331 330 330 329 329 330 330 330 328 329 328 327 329 330 334 330
324 325 325 324 325 329 335 337 337 335 333 331 330 329 330 331 326 321 322 324 324 326 334 334 333 333 332 331 331 330 329 329 330 330 329 329 328 329 329 328 329 332 331
324 324 324 323 324 326 332 336 337 336 334 333 332 332 332 332 327 323 323 325 325 327 335 333 333 333 332 331 331 330 329 330 330 329 328 329 327 329 329 327 328 328 328
323 324 324 323 324 325 329 335 338 337 336 335 334 334 333 332 329 327 325 326 325 332 335 334 333 332 332 332 331 330 330 330 330 329 328 328 327 328 329 328 328 328 328
324 324 323 324 324 325 332 337 339 338 338 337 336 336 335 334 332 329 327 325 327 336 334 334 333 333 332 331 331 329 329 329 329 328 328 327 327 327 329 329 329 328 327
323 322 323 323 324 328 337 339 338 338 338 338 338 338 337 335 333 332 330 329 333 335 334 334 333 332 331 330 328 327 327 328 328 327 327 327 327 327 327 328 328 327 327
321 321 324 324 324 331 337 338 339 338 337 338 339 339 338 336 334 333 333 333 336 334 334 333 332 331 329 328 326 324 327 326 326 326 326 326 327 327 327 327 328 328 327
320 322 322 324 323 329 338 339 340 339 338 338 339 339 338 338 337 337 336 337 335 334 333 333 332 330 328 326 327 324 325 327 324 326 326 326 326 327 327 327 327 327 327
320 321 322 324 326 329 336 339 339 338 336 338 339 339 339 339 339 339 338 336 334 334 332 332 330 328 327 325 325 325 323 322 325 326 325 324 326 326 327 327 326 327 327
318 319 323 330 334 337 339 340 340 338 337 338 340 340 338 338 338 336 335 334 334 332 329 328 328 328 327 326 325 324 324 324 324 325 326 324 325 326 327 327 327 327 327
331 332 337 339 340 340 341 340 339 337 336 335 335 335 335 333 335 334 334 334 331 330 328 327 327 328 328 327 326 324 324 323 324 324 324 321 323 325 327 327 327 328 328

GFSSE_925_thetae_033.txt.gz
Theta_e
338 339 321 320 319 317 316 315 314 314 315 319 323 327 329 328 324 321 319 317 318 319 319 319 318 317 316 316 315 314 314 315 317 320 328 340 342 343 342 341 341 345 342
336 338 321 318 318 316 315 314 313 314 313 314 314 315 316 315 316 316 316 316 316 315 313 311 311 312 313 315 315 314 314 313 312 313 317 323 340 341 342 343 341 344 341
335 330 321 318 317 316 314 313 313 313 312 312 313 313 313 312 312 312 311 310 309 310 311 312 313 317 318 321 321 321 321 320 319 316 316 323 327 337 338 342 343 340 339
333 328 321 318 317 315 314 312 313 313 312 312 312 311 311 311 310 310 310 311 314 314 318 322 322 321 320 322 324 324 325 326 326 326 326 325 322 325 337 340 343 340 338
332 328 321 318 317 315 314 312 312 313 312 312 311 311 311 311 311 311 311 311 315 323 323 324 326 327 326 328 330 332 331 329 329 331 331 328 324 319 328 331 341 344 341
332 328 322 318 317 316 314 313 312 313 312 312 312 312 313 313 313 313 314 315 322 331 330 330 330 330 332 333 332 331 336 336 333 335 335 332 327 320 326 330 333 342 341
332 329 324 319 318 316 315 313 312 313 313 313 313 313 314 314 315 315 316 318 323 330 332 333 333 332 333 336 338 337 334 333 336 335 334 336 330 325 328 332 330 337 338
334 332 332 321 318 317 315 314 313 313 313 313 313 314 315 315 315 316 317 320 324 329 332 334 334 334 334 335 334 335 335 335 337 336 334 333 331 329 329 337 329 334 337
338 335 333 334 321 317 315 315 314 313 314 314 314 314 315 316 316 317 318 320 323 326 331 332 332 333 335 333 330 332 330 329 335 335 336 333 329 330 332 338 334 335 335
341 339 335 332 337 331 334 317 315 314 313 314 314 315 316 317 317 318 319 320 322 327 330 330 331 333 333 331 329 329 330 332 332 334 335 335 329 326 332 336 335 332 330
339 336 334 333 331 336 338 337 317 315 314 314 315 315 316 327 327 329 326 321 321 327 330 330 330 331 331 330 328 326 327 331 330 330 331 333 331 328 329 334 334 332 329
341 339 336 333 332 335 338 337 337 336 334 329 330 331 328 334 333 331 330 320 321 326 330 331 331 331 332 334 333 328 331 331 330 329 329 330 329 329 328 331 334 332 330
333 340 338 337 335 333 340 339 337 337 336 336 335 334 334 335 332 332 332 332 332 329 336 337 337 337 337 335 333 332 331 328 327 330 329 325 324 322 325 328 332 332 330
329 330 334 334 337 336 337 339 338 337 336 334 336 336 335 334 333 333 332 332 334 333 336 338 338 339 338 336 334 332 331 331 330 330 331 330 329 328 326 328 328 331 330
328 326 325 325 327 333 337 339 338 337 337 334 334 336 334 333 333 332 333 332 331 332 333 338 338 339 338 336 334 332 332 332 332 332 332 330 330 330 328 332 333 335 333
325 324 324 324 324 327 331 334 336 336 337 337 335 334 335 333 333 332 332 329 323 322 331 335 338 338 337 335 334 333 333 332 332 333 333 332 328 329 328 325 334 336 333
325 323 324 324 324 324 326 328 336 337 337 337 336 336 337 335 335 328 330 330 322 322 323 328 333 334 335 335 334 334 333 333 332 333 333 332 331 328 328 327 328 329 331
322 323 323 322 322 323 323 326 334 338 337 337 337 336 337 336 335 332 330 328 321 322 325 329 334 334 335 335 334 334 333 332 332 332 332 331 331 331 330 329 328 328 330
322 322 322 322 322 322 323 329 336 338 337 337 337 336 337 336 335 332 330 324 321 325 327 331 335 334 336 335 335 334 333 332 332 332 331 331 331 331 331 330 327 328 328
321 321 322 322 321 321 327 337 339 339 337 337 337 337 337 336 334 334 333 330 329 330 329 335 336 335 335 336 334 332 331 331 332 332 331 331 330 331 331 329 331 330 328
321 322 322 322 322 323 336 338 339 339 339 338 338 337 337 337 337 336 334 333 330 331 333 336 334 336 335 331 331 331 330 331 331 331 330 330 330 330 331 328 330 330 330
323 321 321 321 321 325 336 339 340 340 339 339 338 339 339 338 337 337 335 333 329 332 335 335 336 333 332 331 331 330 331 331 330 330 330 329 330 330 330 329 328 329 330
325 322 322 320 321 324 335 340 340 339 336 339 340 340 339 338 337 336 336 333 332 336 337 334 334 332 333 330 328 330 331 331 330 329 329 327 327 328 329 331 328 328 330
324 324 319 319 321 329 338 340 340 341 339 339 339 340 340 338 338 336 334 334 336 336 334 333 334 332 331 331 326 328 326 328 330 332 329 327 325 327 326 327 330 329 327
322 320 319 323 329 334 339 340 341 341 341 341 340 339 339 339 338 337 337 337 336 334 333 333 332 331 330 330 328 328 328 328 328 330 330 327 325 328 328 327 327 328 331
324 334 336 337 339 338 339 340 342 342 340 340 341 341 340 339 339 338 337 336 334 333 333 331 331 331 330 329 329 328 328 328 328 329 330 325 326 327 326 327 327 330 331